Regional Weather Roundup
Issued by NWS Sterling, VA

Home | Current Version | Previous Version | Text Only | Print | Product List | Glossary Off
Versions: 1 2 3 4 5 6 7 8 9 10 11 12 13 14 15 16 17 18 19 20 21 22 23 24 25 26 27 28 29 30 31 32 33 34 35 36 37 38 39 40 41 42 43 44 45 46 47 48 49 50

000
ASUS41 KLWX 241010
RWRLWX

REGIONAL WEATHER ROUNDUP
NATIONAL WEATHER SERVICE BALTIMORE MD/WASHINGTON DC
600 AM EDT TUE MAY 24 2016

Note: "FAIR" indicates few or no clouds below 12,000 feet
with no significant weather and/or obstructions to visibility.
 TC=TEMPERATURE CELSIUS

 * =Non NWS site. Station does not report precipitation (e.g. rain,
    snow, etc.), thunder, or fog.

DCZ001-MDZ009-015-VAZ040>042-051-053>054-241100-
WASHINGTON METRO

CITY           SKY/WX    TMP DP  RH WIND       PRES   REMARKS
WASHINGTON NAT FAIR      57  55  93 SW6       29.95R
DULLES         FAIR      53  52  96 CALM      29.97R
ANDREWS AFB    MOCLDY    58  55  90 W9        29.93R
FT BELVOIR     FAIR      56  54  95 W3        29.96R
QUANTICO       FAIR      57  55  93 W3        29.97R
LEESBURG*      FAIR      59  54  82 W10       29.98R
MANASSAS*        N/A     54  54 100 CALM      29.97R VSB 3/4

$$

MDZ006>007-011-014-241100-
BALTIMORE METRO

CITY           SKY/WX    TMP DP  RH WIND       PRES   REMARKS
BWI AIRPORT    MOCLDY    57  53  86 W8        29.92R
MD SCIENCE CTR   N/A     60  52  74 MISG      29.91S
MARTIN STATE   MOCLDY    57  57 100 W3        29.93R
ANNAPOLIS      CLOUDY    59  55  87 NW5       29.92R
FORT MEADE*    PTCLDY    54  52  94 W3        29.95R

$$

MDZ012-015-019>023-241100-
MARYLAND EASTERN SHORE

CITY           SKY/WX    TMP DP  RH WIND       PRES   REMARKS
OCEAN CITY     CLOUDY    57  55  93 NW3       29.93R
SALISBURY      CLOUDY    57  56  96 CALM      29.92S
EASTON*        CLEAR     58  58 100 W5        29.95S FOG

$$

MDZ017>025-241100-
SOUTHERN MARYLAND

CITY           SKY/WX    TMP DP  RH WIND       PRES   REMARKS
PATUXENT RIVER MOCLDY    57  55  93 W6        29.94S
ST INIGOES     MOCLDY    58  56  93 SW6       29.94S
LEONARDTOWN*   CLOUDY    55  54  94 W6        29.96R

$$

MDZ003>005-241100-
NORTH CENTRAL MARYLAND

CITY           SKY/WX    TMP DP  RH WIND       PRES   REMARKS
FREDERICK*     CLEAR     54  54 100 SW6       29.99R
HAGERSTOWN APT CLEAR     53  51  93 S7        29.98R FOG
WESTMINSTER*   CLEAR     54  48  82 CALM      29.95R

$$

MDZ501>502-241100-
WESTERN MARYLAND

CITY           SKY/WX    TMP DP  RH WIND       PRES   REMARKS
OAKLAND*       NOT AVBL
CUMBERLAND*    CLEAR     50  50 100 CALM      30.06S

$$

VAZ025>031-241100-
SHENANDOAH VALLEY

CITY           SKY/WX    TMP DP  RH WIND       PRES   REMARKS
WINCHESTER*    FAIR      52  50  93 CALM      30.00R
FRONT ROYAL*   FAIR      54  52  94 SW6       30.00R
LURAY*         FAIR      52  52 100 CALM      30.02S
NEW MARKET*    FAIR      52  52  99 CALM      30.02R
STAUNTON*      LGT RAIN  55  55 100 CALM      30.05S
WAYNESBORO*    CLOUDY    52  51  96 SW8       30.03F

$$

WVZ021-048>050-054>055-241100-
EASTERN WEST VIRGINIA PANHANDLE

CITY           SKY/WX    TMP DP  RH WIND       PRES   REMARKS
MARTINSBURG    FAIR      48  48 100 CALM      29.98R FOG
PETERSBURG*    FAIR      51  51  98 CALM      30.05R FOG

$$

VAZ036>039-050-241100-
CENTRAL FOOTHILLS

CITY           SKY/WX    TMP DP  RH WIND       PRES   REMARKS
CHARLOTTESVILL CLOUDY    58  53  84 CALM      29.99R
CULPEPER*      FAIR      52  52 100 CALM      29.99S
ORANGE*          N/A     52  52 100 CALM      30.01R FOG
GORDONSVILLE*  FOG       51  51 100 CALM      29.99R VSB 1/4
WARRENTON*     FAIR      54  49  86 CALM      29.97R

$$

VAZ055>057-241100-
NORTH AND CENTRAL PIEDMONT

CITY           SKY/WX    TMP DP  RH WIND       PRES   REMARKS
FREDERICKSBRG* FAIR      57  57 100 W3        29.97R
STAFFORD*      FAIR      54  53  95 CALM      30.01R FOG

$$

NCZ024-NYZ072-PAZ021-071-VAZ022-071-241100-
OTHER REGIONAL OBSERVATIONS

CITY           SKY/WX    TMP DP  RH WIND       PRES   REMARKS
NEW YORK CITY  LGT RAIN  58  56  93 CALM      29.91R FOG
PHILADELPHIA   MOCLDY    56  53  90 E3        29.92R
PITTSBURGH     PTCLDY    52  46  80 CALM      30.05R
ROANOKE        FAIR      54  50  86 CALM      30.08R
RICHMOND       MOCLDY    53  52  96 SW5       29.98S
RALEIGH        PTCLDY    52  50  93 CALM      30.06R

$$

ANZ530>537-241100-
MARINE OBSERVATIONS

STATION/POSITION TIME  TEMP    WIND        PRES
                       AIR SEA DIR/SP/G
                 (UTC) (F)     (DEG/KT/KT) (MB)
THOMAS PT LIGHT  1000   61 61  270/ 10/ 12 1014.6R
BALT KEY BRIDGE  0900   61     250/  9/ 10 1012.5S
COVE POINT       0900   58     220/  5/  6 1014.1R
LEWISETTA        0900   59 62  280/  8/ 11 1013.6S
SOLOMONS ISLAND  0900   59 62  250/  3/  3   N/A
PINEY POINT      0900          300/  4/  5   N/A

$$




USA.gov is the U.S. government's official web portal to all federal, state and local government web resources and services.